Wind_Speed
32 31 30 30 30 30 29 28 25 23 22 22 21 18 17 16 16 15 15 15 16 16 15 14 14 13 13 13 13 13 12 12 12 12 13 13 12 11 11 12 12 12 12 13
34 33 32 32 31 30 30 30 29 26 25 24 23 21 20 19 18 17 17 17 17 18 18 16 15 15 14 15 15 15 15 15 15 14 14 14 14 14 14 14 14 14 14 15
34 33 34 35 33 32 32 31 30 29 27 26 25 24 23 22 21 20 20 20 19 19 19 19 18 18 18 17 17 18 17 17 17 17 17 16 16 16 16 17 17 17 17 17
33 35 36 35 33 32 32 32 32 31 29 28 27 26 26 25 24 24 23 22 22 22 22 22 21 20 20 20 19 19 20 19 20 19 18 18 18 18 18 19 19 19 19 19
34 34 34 35 33 32 32 33 33 33 32 30 29 29 28 27 27 27 26 25 24 24 24 24 23 23 22 22 21 21 21 21 21 20 20 20 20 20 20 20 20 20 21 21
35 34 34 35 33 32 33 34 33 33 32 31 30 31 30 29 28 28 27 27 27 26 26 25 25 25 25 24 23 23 23 23 22 22 22 22 22 22 22 21 21 22 22 22
36 35 35 35 33 32 34 34 32 32 32 31 31 31 31 30 30 29 29 28 27 27 26 25 26 26 26 25 24 24 24 24 24 24 24 24 24 23 23 23 23 23 24 25
36 35 36 36 34 34 34 33 32 31 31 31 31 30 30 30 29 29 28 27 27 28 29 28 28 27 26 25 26 26 26 26 26 26 26 26 26 25 25 24 25 25 25 26
38 37 36 35 34 34 33 33 32 32 31 31 31 31 31 30 30 30 29 28 28 28 29 29 30 29 27 27 27 27 27 27 27 27 28 28 28 27 26 26 26 26 27 27
39 38 37 35 34 34 34 34 33 32 31 31 31 31 31 31 30 30 30 29 29 29 29 29 29 29 28 28 29 29 28 29 29 28 28 28 28 28 28 27 27 27 28 29
39 39 38 36 35 34 34 34 34 33 33 32 32 31 31 31 30 30 30 30 29 29 29 29 29 30 29 29 29 29 29 29 29 29 28 28 28 28 28 28 29 29 30 31
38 38 37 36 35 35 34 34 34 34 33 33 32 32 31 31 31 30 31 31 30 30 30 29 29 29 29 29 30 30 29 29 29 29 29 29 29 29 29 29 29 30 31 32
36 37 36 35 35 35 35 34 34 34 33 33 32 32 31 31 31 31 31 31 31 30 30 29 29 29 29 29 30 30 30 30 30 30 30 30 30 30 30 31 31 32 32 32
35 35 35 34 34 34 34 34 35 35 35 34 33 33 32 31 32 31 31 30 30 29 29 29 29 29 29 29 29 30 31 31 31 32 31 31 32 31 31 32 32 32 32 33
33 34 34 33 33 33 34 34 34 35 35 35 33 32 32 31 31 31 31 31 30 30 29 29 29 30 30 30 30 30 31 32 32 32 32 31 32 32 32 33 33 33 33 33
32 32 32 32 31 31 32 32 33 33 33 33 33 32 32 31 31 30 30 30 30 30 30 30 30 31 31 31 32 32 32 32 32 32 32 32 32 32 32 32 32 33 33 33
30 30 30 30 29 29 29 30 30 30 30 31 31 31 31 31 30 29 30 30 30 30 30 30 30 31 31 32 32 32 32 32 32 32 32 31 32 32 32 32 32 32 32 32
28 28 28 28 27 28 29 29 30 29 29 29 29 30 31 30 29 29 29 29 29 30 30 30 31 31 31 32 32 32 33 33 32 31 31 31 31 31 32 32 32 32 32 33
27 27 27 27 27 27 28 29 30 30 30 30 30 30 29 29 29 29 28 28 28 29 30 30 30 30 30 31 31 32 32 31 30 30 29 29 29 30 31 31 32 32 33 33
25 25 26 26 27 28 28 29 29 28 28 29 29 29 29 29 29 29 29 29 29 29 29 29 30 30 30 31 32 32 31 30 30 30 30 30 30 30 31 31 31 32 33 33
23 23 23 23 24 25 25 26 26 26 27 27 27 27 28 29 29 29 29 29 29 28 28 28 28 29 30 30 30 29 28 28 28 28 29 29 29 30 30 31 31 32 33 33
21 21 21 21 22 24 24 25 24 24 25 26 26 26 26 26 26 27 28 28 28 28 27 27 28 28 29 29 28 27 26 26 27 27 28 29 29 30 30 31 31 32 32 33
20 20 20 20 20 22 22 23 23 23 24 24 24 23 23 24 24 25 26 25 26 26 25 26 26 27 27 27 27 26 26 26 27 28 29 30 31 31 31 32 33 33 33 34
17 17 18 18 19 20 21 21 21 22 22 22 23 22 21 22 22 22 22 22 22 22 23 24 24 24 24 25 25 25 26 26 27 28 30 31 31 31 32 33 33 33 33 34
16 15 15 16 18 19 20 20 20 20 20 20 20 19 20 20 20 20 20 21 21 21 22 22 22 23 24 24 25 25 25 26 27 29 30 31 31 31 32 33 33 33 33 32
15 15 15 15 16 17 18 19 19 19 18 19 19 19 19 20 20 20 20 20 21 21 22 22 22 22 22 23 24 24 25 26 28 30 31 31 31 31 32 32 32 32 31 31
14 14 14 15 15 16 16 17 18 19 19 19 19 19 19 19 19 19 20 20 21 21 21 21 21 22 22 23 24 25 25 27 28 29 30 30 30 31 31 31 31 31 30 30
Wind_Direction
229 231 235 236 236 236 236 237 241 247 248 246 247 246 248 251 254 257 258 259 259 258 264 268 269 273 270 271 276 278 280 284 291 291 288 287 288 289 288 292 295 295 297 301
231 233 235 236 236 237 238 239 242 245 247 248 245 242 245 249 251 253 255 255 255 256 261 264 264 267 269 269 272 275 277 279 282 287 288 288 288 287 285 287 290 290 294 297
232 233 235 236 236 237 239 241 241 243 245 246 245 243 245 247 249 250 252 253 254 255 259 260 261 265 269 270 270 272 274 276 279 283 285 286 289 290 285 286 287 288 291 295
234 235 235 237 237 239 240 242 243 244 245 245 246 246 246 248 249 249 250 252 254 255 258 257 257 261 265 267 268 272 272 273 277 279 281 284 286 288 288 289 289 287 289 292
232 236 238 238 237 238 241 243 244 245 246 246 247 248 248 249 250 249 249 251 253 254 257 257 257 259 262 265 266 268 271 274 275 276 278 280 283 285 285 287 287 289 289 291
232 234 236 240 240 240 243 245 244 246 246 245 246 247 248 249 250 249 249 250 251 254 255 255 257 259 259 261 265 266 267 270 272 273 276 278 279 282 283 285 285 287 290 291
232 235 237 239 240 241 243 245 245 246 246 246 246 247 248 250 250 248 248 250 252 255 255 257 258 259 259 262 266 267 268 270 271 273 276 277 277 280 281 282 284 285 287 288
232 235 238 239 240 241 244 246 247 247 246 246 245 246 248 250 250 248 249 251 253 255 254 256 256 257 259 262 266 268 269 270 271 273 275 275 276 277 279 280 282 283 285 287
234 236 239 240 242 244 245 247 247 246 245 244 244 245 247 249 248 248 248 250 252 255 254 253 254 256 260 261 265 266 268 270 272 273 274 275 276 276 277 278 279 281 284 286
235 237 240 242 244 244 245 246 246 245 245 244 244 245 246 248 249 248 249 250 252 254 253 253 254 257 259 262 265 266 267 269 271 272 274 274 274 275 277 277 278 280 282 284
237 239 241 242 243 243 244 244 245 244 243 244 244 245 245 247 247 247 249 250 250 252 253 253 254 256 259 262 265 268 269 269 269 270 272 274 274 274 274 275 277 280 282 282
236 237 238 239 240 241 242 242 243 243 243 243 244 244 245 246 246 247 249 249 250 252 252 253 255 256 259 261 263 266 268 269 270 271 272 274 275 274 274 275 277 279 282 284
235 235 237 239 240 240 241 242 243 243 244 243 243 243 244 246 247 248 250 251 251 251 251 253 257 257 259 261 264 266 268 269 271 272 273 274 275 276 277 277 277 279 282 284
233 235 237 239 240 240 241 241 241 242 242 242 243 243 243 246 247 249 250 249 249 250 251 253 256 257 260 263 265 267 267 269 270 271 274 274 274 275 276 277 277 280 282 284
234 235 237 238 239 239 239 240 240 240 239 239 240 242 243 244 247 248 246 247 248 250 251 253 256 258 260 263 266 267 268 270 270 271 272 273 273 273 274 276 277 280 282 283
234 236 236 234 235 237 238 239 238 237 237 236 238 240 242 245 246 244 244 246 249 250 251 253 256 259 261 264 267 268 269 270 269 270 272 273 273 273 274 276 277 279 281 282
233 233 231 232 232 234 236 236 235 234 236 237 237 240 242 243 244 245 246 247 249 252 253 255 257 259 262 265 267 268 269 270 271 271 272 273 274 274 274 276 278 280 283 283
230 229 228 229 231 230 230 231 232 234 237 238 239 241 240 241 244 247 249 250 252 253 256 258 259 261 263 265 267 269 271 273 272 272 272 273 274 275 275 277 279 280 282 283
226 227 228 229 230 230 229 230 233 235 238 239 239 239 240 242 244 247 250 252 253 255 259 260 259 261 263 267 269 272 272 271 272 272 274 274 276 276 278 279 280 280 282 283
226 228 226 227 229 230 231 232 233 236 238 239 238 238 240 242 244 247 250 254 257 258 259 261 262 265 267 269 270 271 271 272 273 273 274 274 275 276 278 279 280 281 282 283
224 224 223 225 227 228 229 229 230 233 235 236 236 238 240 243 245 248 253 256 256 257 259 262 263 267 270 270 271 270 270 271 273 274 275 277 277 277 279 280 282 283 283 283
220 220 220 222 224 225 225 226 229 232 234 235 236 238 240 242 246 249 252 254 255 257 259 262 265 268 270 271 271 271 270 272 275 277 277 278 279 280 282 283 284 284 285 285
217 216 218 220 222 223 224 226 229 232 233 233 234 237 241 245 248 250 251 252 256 260 263 266 268 269 271 269 271 273 273 274 277 280 281 281 281 281 282 284 285 285 286 287
214 213 216 220 224 223 223 225 227 230 232 235 238 239 242 244 247 251 253 255 257 261 265 267 268 269 272 274 274 275 276 277 280 282 283 284 283 282 283 285 287 287 287 287
214 215 217 221 222 221 222 223 226 232 235 238 240 241 244 246 249 252 253 254 257 261 265 267 270 272 274 275 276 276 276 278 281 283 285 285 284 284 285 286 288 287 287 287
213 216 216 216 219 221 222 225 228 231 234 236 238 240 244 247 249 252 254 254 256 260 264 267 270 273 275 277 279 279 280 281 283 284 286 286 285 286 286 287 288 288 287 287
210 213 215 217 220 223 226 229 232 233 234 235 236 240 244 247 249 252 254 255 258 262 264 267 271 274 275 278 280 281 283 285 287 287 286 286 286 287 287 287 288 288 288 289
Height
5854 5858 5861 5864 5867 5871 5874 5878 5882 5885 5886 5888 5889 5891 5892 5893 5894 5895 5895 5895 5896 5896 5896 5896 5896 5896 5895 5895 5895 5895 5895 5894 5894 5893 5892 5892 5892 5891 5891 5890 5889 5888 5888 5886
5846 5850 5853 5856 5860 5864 5867 5871 5874 5877 5880 5881 5883 5885 5887 5888 5889 5890 5891 5891 5892 5892 5892 5891 5892 5892 5892 5892 5892 5891 5891 5891 5890 5890 5889 5889 5889 5888 5888 5887 5886 5885 5884 5883
5838 5842 5845 5848 5853 5856 5860 5863 5867 5870 5873 5874 5876 5878 5881 5882 5884 5885 5885 5886 5887 5887 5887 5887 5887 5888 5888 5888 5887 5887 5887 5887 5887 5887 5886 5886 5885 5884 5884 5883 5883 5882 5881 5880
5831 5833 5836 5843 5845 5849 5852 5855 5859 5862 5865 5867 5869 5871 5873 5875 5877 5878 5880 5880 5881 5881 5882 5882 5882 5882 5883 5882 5882 5882 5881 5882 5882 5882 5882 5882 5881 5880 5880 5879 5878 5877 5876 5875
5822 5824 5829 5833 5837 5841 5844 5847 5850 5853 5856 5859 5862 5864 5866 5868 5870 5871 5873 5874 5875 5875 5876 5876 5877 5877 5877 5877 5877 5877 5876 5877 5877 5877 5877 5877 5876 5876 5875 5873 5872 5872 5871 5870
5813 5817 5821 5826 5829 5832 5836 5838 5842 5845 5848 5851 5854 5856 5859 5860 5862 5863 5865 5866 5867 5868 5869 5870 5871 5871 5871 5871 5871 5871 5871 5872 5872 5872 5872 5871 5871 5870 5869 5868 5867 5866 5866 5865
5804 5808 5812 5817 5820 5824 5828 5831 5834 5836 5839 5843 5845 5848 5851 5852 5853 5855 5857 5858 5860 5861 5862 5863 5864 5864 5864 5865 5865 5865 5865 5865 5865 5865 5865 5865 5865 5864 5863 5862 5861 5860 5859 5858
5795 5800 5805 5808 5811 5815 5818 5822 5825 5828 5830 5833 5836 5839 5841 5843 5845 5847 5849 5850 5852 5854 5855 5856 5857 5857 5857 5858 5859 5859 5858 5858 5858 5858 5858 5858 5857 5857 5856 5855 5855 5853 5852 5851
5787 5792 5795 5799 5803 5806 5810 5813 5816 5819 5821 5824 5827 5830 5833 5835 5837 5839 5840 5842 5844 5846 5847 5848 5849 5850 5850 5851 5851 5851 5851 5851 5851 5851 5851 5850 5850 5849 5849 5848 5847 5846 5845 5844
5777 5782 5786 5790 5794 5797 5800 5804 5807 5810 5813 5816 5819 5822 5824 5826 5828 5830 5832 5834 5836 5837 5838 5839 5841 5841 5842 5843 5844 5843 5843 5843 5843 5843 5843 5843 5842 5841 5841 5840 5839 5838 5837 5835
5767 5772 5776 5781 5784 5788 5791 5794 5797 5801 5804 5807 5810 5813 5815 5817 5819 5821 5823 5825 5827 5828 5830 5831 5832 5833 5834 5835 5835 5835 5835 5835 5835 5835 5834 5834 5833 5833 5832 5831 5831 5830 5828 5827
5758 5762 5767 5771 5774 5778 5781 5784 5788 5791 5795 5798 5801 5803 5806 5808 5810 5813 5814 5816 5818 5819 5821 5822 5823 5824 5825 5826 5826 5826 5826 5826 5826 5826 5826 5825 5825 5824 5823 5823 5822 5821 5820 5818
5748 5752 5756 5760 5764 5768 5771 5775 5778 5781 5785 5788 5791 5794 5797 5799 5802 5804 5806 5807 5809 5810 5812 5814 5815 5816 5816 5817 5818 5818 5818 5818 5817 5817 5817 5816 5816 5815 5814 5813 5812 5811 5810 5809
5738 5742 5746 5750 5754 5757 5761 5764 5767 5771 5775 5779 5782 5785 5788 5790 5792 5795 5797 5798 5800 5802 5803 5805 5806 5807 5808 5808 5809 5809 5809 5809 5808 5808 5808 5807 5806 5805 5805 5804 5803 5802 5801 5799
5729 5733 5737 5741 5744 5747 5750 5753 5757 5761 5765 5769 5773 5776 5779 5781 5783 5786 5787 5789 5791 5793 5795 5796 5798 5798 5799 5799 5799 5799 5799 5799 5799 5799 5798 5797 5796 5796 5795 5794 5793 5792 5791 5789
5720 5724 5728 5731 5735 5738 5741 5744 5748 5752 5756 5760 5764 5767 5770 5773 5775 5777 5779 5781 5783 5784 5786 5788 5789 5789 5790 5790 5791 5790 5790 5790 5789 5788 5788 5787 5786 5786 5785 5784 5783 5782 5781 5779
5712 5716 5719 5723 5726 5730 5733 5736 5740 5744 5748 5751 5755 5758 5761 5764 5767 5769 5771 5773 5775 5776 5778 5779 5780 5780 5781 5781 5781 5781 5780 5780 5779 5778 5778 5777 5776 5776 5775 5774 5773 5772 5770 5769
5704 5708 5711 5715 5719 5722 5726 5729 5732 5736 5740 5743 5747 5750 5753 5756 5759 5761 5763 5765 5767 5768 5769 5770 5771 5771 5772 5772 5772 5771 5771 5770 5770 5769 5768 5767 5766 5766 5765 5764 5763 5762 5760 5759
5697 5700 5704 5708 5711 5715 5719 5722 5725 5729 5733 5736 5739 5742 5746 5749 5751 5753 5755 5757 5759 5760 5761 5761 5761 5762 5762 5763 5763 5762 5761 5760 5760 5759 5758 5758 5757 5756 5755 5754 5753 5752 5750 5749
5690 5693 5697 5700 5704 5708 5712 5715 5718 5722 5725 5729 5732 5735 5738 5741 5744 5746 5748 5750 5751 5752 5752 5753 5753 5754 5754 5754 5754 5753 5753 5752 5751 5750 5750 5749 5748 5747 5746 5745 5743 5742 5740 5738
5684 5688 5691 5694 5698 5701 5705 5709 5712 5716 5719 5722 5725 5728 5731 5733 5736 5738 5740 5742 5743 5743 5744 5745 5745 5745 5745 5745 5744 5743 5743 5742 5742 5741 5741 5740 5739 5738 5737 5735 5734 5732 5730 5728
5679 5683 5686 5690 5693 5696 5700 5703 5706 5710 5713 5715 5718 5721 5723 5725 5728 5730 5732 5733 5734 5735 5735 5736 5737 5737 5737 5736 5736 5735 5734 5734 5734 5733 5732 5731 5730 5729 5727 5726 5724 5722 5720 5718
5675 5678 5681 5685 5688 5691 5694 5697 5701 5704 5707 5709 5712 5714 5716 5718 5720 5722 5724 5725 5726 5727 5727 5728 5729 5729 5728 5728 5727 5727 5726 5726 5726 5725 5723 5722 5721 5719 5717 5716 5714 5712 5710 5707
5671 5674 5677 5680 5683 5686 5689 5692 5695 5698 5701 5703 5706 5708 5710 5712 5714 5715 5716 5718 5719 5719 5720 5721 5721 5721 5720 5720 5719 5719 5718 5718 5717 5716 5714 5713 5711 5709 5708 5706 5704 5701 5699 5697
5668 5671 5674 5677 5679 5682 5685 5688 5691 5693 5696 5698 5700 5702 5704 5706 5708 5709 5710 5711 5712 5713 5713 5713 5713 5713 5713 5712 5712 5711 5710 5710 5709 5707 5705 5703 5702 5700 5698 5696 5694 5692 5689 5687
5665 5668 5671 5674 5676 5679 5682 5685 5687 5689 5691 5693 5695 5697 5699 5700 5702 5703 5704 5705 5705 5706 5706 5706 5706 5706 5705 5705 5704 5703 5702 5701 5700 5698 5696 5694 5692 5690 5688 5686 5684 5682 5679 5677
5663 5666 5668 5671 5673 5676 5678 5681 5683 5685 5686 5688 5690 5692 5693 5695 5696 5697 5698 5698 5699 5699 5699 5699 5699 5699 5698 5697 5696 5695 5694 5693 5691 5689 5687 5685 5683 5681 5679 5676 5674 5672 5670 5668